Location: Hilton Head Island
(32.2163°N, 80.7526°W)
Time: 19:12:24
(UTC-04:00)

Altair - Pass Details

Date: 21 February 2026
Orbit: 1502 x 1682 km, 47.2° (Epoch: 10 March)

Event Time Altitude Azimuth Distance (km) Brightness Sun altitude
Exits shadow 02:49:17 28° 65° (ENE) 2,546 8.9 -52.5°
Drops below altitude 10° 02:53:03 10° 57° (ENE) 3,684 9.9 -51.8°
Sets 02:56:09 0° 55° (NE) 4,685 10.7 -51.2°
